Showing default

PIAST-M, 66758

Orbit data source: Space-Track

PIAST-M, 66758 is a Polish payload satellite in SSO that was launched on Fri, 28 Nov 2025 UTC via an FALCON 9 launch vehicle from the Air Force Western Test Range (AFWTR). Payload-class satellites include a variety of spacecraft equipped with specific instruments for various scientific and technological missions. These include communications satellites like Starlink; space stations such as the ISS; scientific satellites like the Hubble; Earth observation satellites from companies like Planet Labs, Umbra, and HawkEye 360; GPS; miniature CubeSats for education and research; and military/defense satellites.

Loading next visibility...
Identifier
66758, 2025-276CW
Orbit
SSO
Country
Flag of PLPL / POL
Related business
Manufacturer
CREO
Mission
Operational Amateur Imaging
Bus & Motor
CUBESAT 6U, Unknown motor
Mass
12 kg wet, 12 kg dry
Launch date (UTC)
2025-11-28 (4 months ago)
Launch vehicle
FALCON 9
Launch site
Air Force Western Test Range (AFWTR)
Object type
Payload
Rocket body
Debris
Shape & HBR
Box + 1 Pan, 0.1 m
Radar Cross Section
0.080 m²

Expand to show TLE details & history
Last TLE update: 9 hours ago

TLE from 9 hours ago
0 PIAST-M
1 66758U 25276CW  26095.45046344  .00007319  00000-0  34724-3 0  9999
2 66758  97.4215 170.3216 0001559 139.5688 220.5663 15.19559065 19383
Epoch: 2026-04-05T10:48Z
TLE epoch observation values (Epoch: 2026-04-05T10:48:40.041Z)
Latitude
Longitude
174.39905°
Altitude
511.077 km
Speed
7.608 km/s
True Right ascension
11h 21m 17s
True Declination
0° 00' 00"
Sunlit
Object was in full shadow at epoch
Visualization orbit readout
Latitude
Unknown
Longitude
Unknown
Altitude
Unknown
Speed
Unknown
Apparent Right ascension
Unknown
Apparent Declination
Unknown
Sunlit
N/A
Visualization observer readout
Local Sidereal Time
01:45:50
Azimuth
Unknown
Elevation
Unknown
Doppler factor
Unknown
Orbital elements
Apogee altitude
505.212 km
Perigee altitude
503.066 km
Semi-major axis
6,882.276 km
Eccentricity
0.00016
Inclination
97.4215°
RAAN
170.3216°
Arg. of periapsis
139.5688°
True anomaly
220.55468°
Mean anomaly
220.5663°
Eccentric anomaly
220.56049°
Mean motion
3.80141 °/min
Orbital period
94.7 mins
BSTAR
0.00034724
Loading maneuver chart data...
Computing Atmospheric mass density...
Loading historical data...
Loading historical data...
Loading historical data...
Loading historical data...
Loading historical data...
Loading historical data...
Loading historical data...

Documentation

Showing up to 5 results
|